Starlink 3828

operational
NORAD ID: 52469 Int'l Des: 2022-049 Owner: SPXS Country: US Constellation: starlink
LEOCIRCULAR

Starlink 3828について

説明を読み込み中...

リアルタイム位置

3D地球を読み込み中...

次回通過

高度履歴

Altitude vs Time

uPlot chart will show altitude changes over time

軌道要素

1 52469U 22049U 25258.32018635 -.00000786 00000-0 -31315-4 0 9993
2 52469 53.2163 126.3922 0001302 87.4459 272.6682 15.08832748185773
Epoch: Sep 15, 2025 • Age: 22 hours

現在のステータス

高度 539.7 km
速度 7.60 km/s
衛星直下点 14.33°N, 47.42°E
打ち上げ日 May 6, 2022
運用期間 3.3 years
タイプ internet

技術仕様

分類 Payload
質量 297.00 kg
乾燥質量 220.00 kg
総質量 297.00 kg
長さ 0.20 m
直径 2.80 m
スパン 9.00 m
形状 Box + pan
製造者 SPXS
バスタイプ Starlink
フェーズステータス In Orbit
所有者/国 SPXS/US

大規模コンステレーション

Loading constellations...